Hourly Weather Barreirinhas

Today, 18 April, Sunday

Time Temperature Precipitation Wind Pressure Humidity
00:00 +27°C° 0.7 mm 3 mps 758 mmHg 91%
01:00 +27°C° 1.6 mm 3 mps 757 mmHg 90%
02:00 +27°C° 1.6 mm 3 mps 757 mmHg 90%
03:00 +27°C° 1.6 mm 3 mps 756 mmHg 90%
04:00 +27°C° 1 mm 3 mps 757 mmHg 90%
05:00 +27°C° 1 mm 3 mps 757 mmHg 90%
06:00 +27°C° 1 mm 3 mps 757 mmHg 91%
07:00 +27°C° 0.6 mm 3 mps 758 mmHg 89%
08:00 +28°C° 0.6 mm 3 mps 758 mmHg 87%
09:00 +28°C° 0.6 mm 3 mps 759 mmHg 85%
10:00 +29°C° 0.4 mm 4 mps 758 mmHg 80%
11:00 +30°C° 0.4 mm 4 mps 758 mmHg 76%
12:00 +32°C° 0.4 mm 5 mps 758 mmHg 71%
13:00 +32°C° 0.3 mm 4 mps 757 mmHg 72%
14:00 +32°C° 0.3 mm 4 mps 757 mmHg 73%
15:00 +30°C° 0.3 mm 4 mps 756 mmHg 74%
16:00 +30°C° 0.2 mm 4 mps 756 mmHg 77%
17:00 +29°C° 0.2 mm 3 mps 756 mmHg 81%
18:00 +28°C° 0.2 mm 3 mps 757 mmHg 84%
19:00 +28°C° 0 mm 3 mps 757 mmHg 84%
20:00 +28°C° 0 mm 3 mps 757 mmHg 84%
21:00 +28°C° 0 mm 3 mps 758 mmHg 84%
22:00 +28°C° 0.3 mm 3 mps 758 mmHg 85%
23:00 +27°C° 0.3 mm 2 mps 758 mmHg 86%

Tomorrow, 19 April, Monday

Time Temperature Precipitation Wind Pressure Humidity
00:00 +27°C° 0.3 mm 2 mps 758 mmHg 87%
01:00 +27°C° 1.5 mm 2 mps 758 mmHg 89%
02:00 +26°C° 1.5 mm 2 mps 757 mmHg 90%
03:00 +26°C° 1.5 mm 2 mps 757 mmHg 92%
04:00 +26°C° 1.3 mm 2 mps 757 mmHg 92%
05:00 +26°C° 1.3 mm 2 mps 758 mmHg 93%
06:00 +26°C° 1.3 mm 1 mps 758 mmHg 93%
07:00 +26°C° 0.6 mm 1 mps 758 mmHg 91%
08:00 +27°C° 0.6 mm 1 mps 759 mmHg 88%
09:00 +27°C° 0.6 mm 1 mps 760 mmHg 86%
10:00 +28°C° 0.8 mm 1 mps 759 mmHg 84%
11:00 +28°C° 0.8 mm 1 mps 759 mmHg 83%
12:00 +28°C° 0.8 mm 1 mps 759 mmHg 82%
13:00 +28°C° 0.7 mm 1 mps 758 mmHg 82%
14:00 +28°C° 0.7 mm 1 mps 758 mmHg 82%
15:00 +26°C° 0.7 mm 0 mps 757 mmHg 82%
16:00 +28°C° 0.1 mm 1 mps 757 mmHg 84%
17:00 +27°C° 0.1 mm 1 mps 757 mmHg 86%
18:00 +27°C° 0.1 mm 1 mps 757 mmHg 88%
19:00 +27°C° 0 mm 1 mps 758 mmHg 89%
20:00 +26°C° 0 mm 1 mps 758 mmHg 89%
21:00 +26°C° 0 mm 2 mps 759 mmHg 90%
22:00 +26°C° 0 mm 1 mps 758 mmHg 90%
23:00 +26°C° 0 mm 1 mps 758 mmHg 91%

Day after tomorrow, 20 April, Tuesday

Time Temperature Precipitation Wind Pressure Humidity
00:00 +26°C° 0 mm 1 mps 758 mmHg 91%
01:00 +26°C° 0.2 mm 1 mps 758 mmHg 92%
02:00 +25°C° 0.2 mm 1 mps 758 mmHg 92%
03:00 +25°C° 0.2 mm 1 mps 757 mmHg 92%
04:00 +25°C° 0.5 mm 1 mps 758 mmHg 92%
05:00 +25°C° 0.5 mm 1 mps 758 mmHg 92%
06:00 +25°C° 0.5 mm 1 mps 758 mmHg 92%
07:00 +26°C° 0.4 mm 1 mps 758 mmHg 88%
08:00 +28°C° 0.4 mm 1 mps 759 mmHg 83%
09:00 +29°C° 0.4 mm 2 mps 759 mmHg 78%
10:00 +30°C° 0.8 mm 2 mps 759 mmHg 75%
11:00 +30°C° 0.8 mm 2 mps 759 mmHg 73%
12:00 +31°C° 0.8 mm 3 mps 758 mmHg 70%
13:00 +31°C° 0.4 mm 3 mps 758 mmHg 70%
14:00 +30°C° 0.4 mm 3 mps 757 mmHg 71%
15:00 +30°C° 0.4 mm 3 mps 756 mmHg 72%
16:00 +29°C° 0.2 mm 3 mps 757 mmHg 76%
17:00 +28°C° 0.2 mm 3 mps 757 mmHg 79%
18:00 +27°C° 0.2 mm 2 mps 757 mmHg 83%
19:00 +27°C° 0 mm 2 mps 758 mmHg 83%
20:00 +27°C° 0 mm 2 mps 758 mmHg 83%
21:00 +27°C° 0 mm 1 mps 759 mmHg 84%
22:00 +27°C° 0.6 mm 1 mps 759 mmHg 85%
23:00 +27°C° 0.6 mm 1 mps 759 mmHg 87%

21 April, Wednesday

Time Temperature Precipitation Wind Pressure Humidity
00:00 +26°C° 0.6 mm 1 mps 759 mmHg 88%
01:00 +26°C° 1.1 mm 1 mps 758 mmHg 89%
02:00 +26°C° 1.1 mm 1 mps 758 mmHg 89%
03:00 +26°C° 1.1 mm 1 mps 757 mmHg 90%
04:00 +26°C° 1.4 mm 1 mps 758 mmHg 91%
05:00 +25°C° 1.4 mm 1 mps 758 mmHg 92%
06:00 +25°C° 1.4 mm 1 mps 758 mmHg 94%
07:00 +26°C° 0.4 mm 1 mps 759 mmHg 89%
08:00 +28°C° 0.4 mm 1 mps 759 mmHg 85%
09:00 +29°C° 0.4 mm 1 mps 760 mmHg 81%
10:00 +29°C° 0.8 mm 1 mps 759 mmHg 77%
11:00 +30°C° 0.8 mm 1 mps 759 mmHg 73%
12:00 +31°C° 0.8 mm 1 mps 759 mmHg 69%
13:00 +31°C° 1.1 mm 1 mps 758 mmHg 71%
14:00 +30°C° 1.1 mm 1 mps 757 mmHg 72%
15:00 +30°C° 1.1 mm 1 mps 757 mmHg 74%
16:00 +27°C° 0.9 mm 0 mps 757 mmHg 77%
17:00 +26°C° 0.9 mm 0 mps 757 mmHg 80%
18:00 +25°C° 0.9 mm 0 mps 757 mmHg 83%
19:00 +25°C° 0.1 mm 0 mps 758 mmHg 84%
20:00 +25°C° 0.1 mm 0 mps 759 mmHg 85%
21:00 +25°C° 0.1 mm 0 mps 759 mmHg 86%
22:00 +25°C° 0.1 mm 0 mps 759 mmHg 87%
23:00 +26°C° 0.1 mm 1 mps 759 mmHg 88%

22 April, Thursday

Time Temperature Precipitation Wind Pressure Humidity
00:00 +26°C° 0.1 mm 1 mps 759 mmHg 88%
01:00 +26°C° 0 mm 1 mps 758 mmHg 90%
02:00 +26°C° 0 mm 1 mps 758 mmHg 91%
03:00 +25°C° 0 mm 2 mps 758 mmHg 93%
04:00 +25°C° 0 mm 2 mps 758 mmHg 93%
05:00 +25°C° 0 mm 2 mps 758 mmHg 94%
06:00 +25°C° 0 mm 2 mps 759 mmHg 95%
07:00 +26°C° 0.1 mm 2 mps 759 mmHg 90%
08:00 +27°C° 0.1 mm 2 mps 759 mmHg 85%
09:00 +29°C° 0.1 mm 2 mps 760 mmHg 80%
10:00 +29°C° 0.7 mm 2 mps 759 mmHg 77%
11:00 +30°C° 0.7 mm 2 mps 759 mmHg 74%
12:00 +31°C° 0.7 mm 2 mps 759 mmHg 71%
13:00 +31°C° 0.7 mm 2 mps 758 mmHg 72%
14:00 +31°C° 0.7 mm 2 mps 757 mmHg 72%
15:00 +31°C° 0.7 mm 2 mps 756 mmHg 73%
16:00 +30°C° 0.3 mm 2 mps 757 mmHg 76%
17:00 +29°C° 0.3 mm 2 mps 757 mmHg 79%
18:00 +28°C° 0.3 mm 2 mps 757 mmHg 82%
19:00 +27°C° 0 mm 2 mps 758 mmHg 83%
20:00 +27°C° 0 mm 2 mps 758 mmHg 83%
21:00 +27°C° 0 mm 2 mps 759 mmHg 84%
22:00 +27°C° 0.2 mm 2 mps 759 mmHg 85%
23:00 +27°C° 0.2 mm 1 mps 758 mmHg 86%

23 April, Friday

Time Temperature Precipitation Wind Pressure Humidity
00:00 +27°C° 0.2 mm 1 mps 758 mmHg 87%
01:00 +26°C° 0 mm 1 mps 758 mmHg 88%
02:00 +26°C° 0 mm 2 mps 757 mmHg 89%
03:00 +26°C° 0 mm 2 mps 757 mmHg 89%
04:00 +26°C° 0.3 mm 2 mps 757 mmHg 91%
05:00 +26°C° 0.3 mm 2 mps 758 mmHg 92%
06:00 +25°C° 0.3 mm 2 mps 758 mmHg 93%
07:00 +27°C° 0 mm 2 mps 759 mmHg 89%
08:00 +28°C° 0 mm 2 mps 759 mmHg 84%
09:00 +29°C° 0 mm 2 mps 759 mmHg 79%
10:00 +30°C° 0.2 mm 2 mps 759 mmHg 75%
11:00 +31°C° 0.2 mm 2 mps 758 mmHg 71%
12:00 +33°C° 0.2 mm 3 mps 758 mmHg 67%
13:00 +31°C° 0.8 mm 3 mps 757 mmHg 69%
14:00 +31°C° 0.8 mm 3 mps 757 mmHg 72%
15:00 +31°C° 0.8 mm 3 mps 756 mmHg 74%
16:00 +30°C° 0.8 mm 3 mps 756 mmHg 77%
17:00 +29°C° 0.8 mm 3 mps 756 mmHg 80%
18:00 +28°C° 0.8 mm 3 mps 757 mmHg 82%
19:00 +28°C° 1.7 mm 3 mps 757 mmHg 85%
20:00 +27°C° 1.7 mm 3 mps 758 mmHg 87%
21:00 +27°C° 1.7 mm 3 mps 758 mmHg 90%
22:00 +27°C° 3.2 mm 2 mps 758 mmHg 92%
23:00 +26°C° 3.2 mm 2 mps 758 mmHg 94%
Show more